カタログに戻る

STARLINK-5202

運用中通信VLEO
NORAD 54761·PAYLOAD·🇺🇸 United States

打ち上げ Dec 17, 2022 から Cape Canaveral Space Force Station

Loading…

次のパス (今後24時間)

TLE

最新Source: CelesTrak SupGP

元期: Sep 15, 2026, 02:04 UTC

1 54761C 22175D   26258.08659722 -.00016980  00000+0 -54603-3 0  2586
2 54761  53.1576 263.0340 0001425  84.8320  52.5762 15.31709430    18

AllMySatでSTARLINK-5202をリアルタイム追跡

Download on the App Store